This demonstration page uses our WeatherBlox Daily Observations layout. Learn more.

Left ArrowRight Arrow

38.89511, -77.03637

Hourly Observations for March 22, 2021

Temp ( °F °C ) Dew Point ( °F °C ) Humidity (%) Winds ( mph kmh ) Pressure ( in mb ) Visibility ( mi km ) Precip ( " mm )
12:52 am 00:52 Clear 48 8.9 26 -3.3 42 42 Calm 30.44 1031 10 16.0934 0 0
1:52 am 01:52 Clear 47 8.3 26 -3.3 44 44 Calm 30.43 1031 10 16.0934 0 0
2:52 am 02:52 Mostly Clear 45 7.2 30 -1.1 56 56 NE 6 9 30.42 1030 10 16.0934 0 0
4:52 am 04:52 Mostly Clear 41 5 30 -1.1 65 65 Calm 30.4 1030 10 16.0934 0 0
5:52 am 05:52 Mostly Clear 39 3.9 30 -1.1 70 70 ENE 6 9 30.4 1030 10 16.0934 0 0
6:52 am 06:52 Mostly Clear 39 3.9 30 -1.1 70 70 ENE 6 9 30.41 1030 10 16.0934 0 0
7:52 am 07:52 Sunny 41 5 31 -0.6 67 67 NE 6 9 30.42 1030 10 16.0934 0 0
8:52 am 08:52 Sunny 44 6.7 32 0 63 63 NE 7 11 30.42 1030 10 16.0934 0 0
9:52 am 09:52 Sunny 49 9.4 34 1.1 56 56 NE 8 13 30.42 1030 10 16.0934 0 0
10:52 am 10:52 Sunny 53 11.7 36 2.2 52 52 ENE 5 7 30.42 1030 10 16.0934 0 0
11:52 am 11:52 Sunny 57 13.9 37 2.8 47 47 NE 8 13 30.4 1030 10 16.0934 0 0
12:52 pm 12:52 Sunny 60 15.6 36 2.2 41 41 VRB 3 6 30.37 1028 10 16.0934 0 0
1:52 pm 13:52 Sunny 63 17.2 34 1.1 34 34 NE 6 9 30.33 1027 10 16.0934 0 0
2:52 pm 14:52 Sunny 65 18.3 33 0.6 31 31 NE 3 6 30.29 1026 10 16.0934 0 0
3:52 pm 15:52 Sunny 66 18.9 35 1.7 32 32 ENE 5 7 30.27 1025 10 16.0934 0 0
4:52 pm 16:52 Sunny 65 18.3 35 1.7 33 33 E 8 13 30.26 1025 10 16.0934 0 0
5:52 pm 17:52 Sunny 63 17.2 34 1.1 34 34 ESE 9 15 30.26 1025 10 16.0934 0 0
6:52 pm 18:52 Sunny 61 16.1 35 1.7 38 38 ESE 9 15 30.26 1025 10 16.0934 0 0
7:52 pm 19:52 Clear 58 14.4 38 3.3 48 48 E 6 9 30.25 1025 10 16.0934 0 0
8:52 pm 20:52 Clear 56 13.3 40 4.4 55 55 E 5 7 30.25 1025 10 16.0934 0 0
9:52 pm 21:52 Clear 55 12.8 39 3.9 55 55 NNE 3 6 30.26 1025 10 16.0934 0 0
10:52 pm 22:52 Clear 54 12.2 38 3.3 55 55 ENE 5 7 30.26 1025 10 16.0934 0 0
11:52 pm 23:52 Clear 52 11.1 42 5.6 69 69 ENE 3 6 30.27 1025 10 16.0934 0 0

Powered by AerisWeather